Find Beidou DW 3

NORAD ID: 36287 Int'l Des: 2010-001 Owner: CNSA Country: CN Constellation: BeiDou operational
HEOCIRCULARGSO

現在のビュー

3D地球を読み込み中...

About Beidou DW 3

Beidou DW 3 (NORAD 36287) is a BeiDou constellation satellite launched Jan 16, 2010 by CNSA of CN. It operates in HEO, CIRCULAR, GSO orbit with a mass of 3060.00 kg.

Beidou DW 3について

説明を読み込み中...

次回通過

Passes for default location (London). Set your location on the main map for personalized predictions.

高度履歴

Loading altitude history...

軌道要素

1 36287U 10001A 26195.61300167 -.00000290 00000-0 00000-0 0 9997
2 36287 4.3551 60.3057 0001876 287.3614 305.9435 1.00272169 60441
Epoch: Jul 14, 2026 • Age: 8 hours

現在のステータス

高度 35782.1 km
遠地点 / 近地点 N/A
速度 3.08 km/s
衛星直下点 -1.02°S, 140.52°E
打ち上げ日 Jan 16, 2010
運用期間 16.4 years
タイプ navigation

技術仕様

分類 Payload
質量 3060.00 kg
乾燥質量 1700.00 kg
総質量 3060.00 kg
長さ 3.00 m
直径 1.70 m
スパン 18.00 m
形状 Box + 2 Pan
製造者 CAST
バスタイプ DFH-3B
フェーズステータス In Orbit
所有者/国 CNSA/CN

Most Searched